Flag for Canada Weather past 2 weeks in Drummondville, Quebec, Canada

Now
60 °F

Cool.


Feels Like: 60 °F
Forecast: 61 / 82 °F
Wind: 1 mph from East

Location: Nicolet

Current Time: Jul 6, 2015 at 4:12:58 AM

Latest Report: Jul 6, 2015 at 3:00 AM


Visibility: N/A

Pressure: 30.07 "Hg

Humidity: 96%

Dew point: 59 °F

Location of DrummondvilleLocation

Historic Weather in Drummondville — Graph

°F

Drummondville temperature yesterday

Maximum temperature yesterday: 77 °F (at 5:00 PM)
Minimum temperature yesterday: 61 °F (at 5:00 AM)
Average temperature yesterday: 69 °F

Past Weeks' High & Low Weather Summary

 TemperatureHumidityPressure
High78 °F (Jun 30, 3:00 PM)98% (Jul 1, 1:00 PM)30.18 "Hg (Jul 1, 1:00 PM)
Low49 °F (Jun 26, 5:00 AM)38% (Jun 25, 4:00 PM)29.49 "Hg (Jun 23, 5:00 PM)
Average64 °F77%29.88 "Hg
* Reported Jun 21 3:00 AM — Jul 6 3:00 AM, Drummondville, Weather by CustomWeather, © 2015

Note: Actual official high and low records may vary slightly from our data, if they occured in-between our weather recording intervals... More about our weather records

Advertising

Drummondville weather history for previous 24 hours

 ConditionsComfort  
Time TempWeatherWind HumidityBarometerVisibility
3:00 AM
Mon, Jul 6
60 °FCool.1 mph96%30.07 "HgN/A
2:00 AM63 °FMild.5 mph91%30.08 "HgN/A
1:00 AM60 °FCool.2 mph97%30.08 "HgN/A
12:00 AM62 °FCool.1 mph96%30.07 "HgN/A
11:00 PM
Sun, Jul 5
62 °FMild.1 mph93%30.08 "HgN/A
10:00 PM65 °FMild.1 mph89%30.07 "HgN/A
9:00 PM68 °FMild.1 mph86%30.04 "HgN/A
8:00 PM73 °FMild.3 mph70%30.03 "HgN/A
7:00 PM76 °FMild.3 mph67%30.02 "HgN/A
6:00 PM77 °FWarm.5 mph63%30.02 "HgN/A
5:00 PM77 °FWarm.7 mph60%30.02 "HgN/A
4:00 PM77 °FMild.5 mph66%30.02 "HgN/A
3:00 PM77 °FMild.5 mph62%30.03 "HgN/A
2:00 PM75 °FMild.7 mph65%30.04 "HgN/A
1:00 PM74 °FMild.7 mph68%30.03 "HgN/A
12:00 PM71 °FMild.5 mph72%30.03 "HgN/A
11:00 AM70 °FMild.7 mph70%30.02 "HgN/A
10:00 AM67 °FMild.5 mph80%30.01 "HgN/A
9:00 AM68 °FMild.7 mph80%30.00 "HgN/A
8:00 AM67 °FMild.6 mph79%30.01 "HgN/A
7:00 AM65 °FMild.7 mph89%29.99 "HgN/A
6:00 AM62 °FCool.5 mph96%29.96 "HgN/A
5:00 AM61 °FCool.5 mph96%29.94 "HgN/A
4:00 AM63 °FMild.5 mph95%29.93 "HgN/A
Weather by CustomWeather, © 2015

See weather overviewHow to use our weather pages